This demonstration page uses our WeatherBlox Daily Observations layout. Learn more.

Left ArrowRight Arrow

Hourly Observations for July 25, 2022

Temp ( °F °C ) Dew Point ( °F °C ) Humidity (%) Winds ( mph kmh ) Pressure ( in mb ) Visibility ( mi km ) Precip ( " mm )
12:52 am 00:52 Mostly Cloudy 67 19.4 62 16.7 84 84 NNW 5 7 30.02 1017 10 16 0.00 0.00
1:52 am 01:52 Mostly Cloudy 66 18.9 62 16.7 87 87 NW 6 9 30.02 1017 10 16 0.00 0.00
2:52 am 02:52 Partly Cloudy 65 18.3 61 16.1 87 87 NNW 6 9 30.02 1017 10 16 0.00 0.00
3:52 am 03:52 Mostly Cloudy 69 20.6 58 14.4 68 68 ESE 6 9 30.03 1017 10 16 0.00 0.00
4:52 am 04:52 Cloudy 68 20 58 14.4 70 70 SE 12 19 30.06 1018 10 16 0.00 0.00
5:52 am 05:52 Mostly Cloudy 67 19.4 58 14.4 73 73 SE 8 13 30.06 1018 10 16 0.00 0.00
6:52 am 06:52 Mostly Cloudy 68 20 58 14.4 70 70 ESE 5 7 30.09 1019 10 16 0.00 0.00
7:52 am 07:52 Mostly Cloudy 69 20.6 59 15 70 70 SSE 10 17 30.09 1019 10 16 0.00 0.00
8:52 am 08:52 Cloudy 70 21.1 59 15 68 68 SSE 7 11 30.09 1019 10 16 0.00 0.00
9:52 am 09:52 Cloudy 70 21.1 59 15 68 68 SE 8 13 30.08 1019 10 16 0.00 0.00
10:52 am 10:52 Cloudy 71 21.7 60 15.6 68 68 SE 7 11 30.07 1018 10 16 0.00 0.00
11:52 am 11:52 Cloudy 72 22.2 62 16.7 71 71 S 8 13 30.06 1018 10 16 0.00 0.00
12:52 pm 12:52 Cloudy 72 22.2 62 16.7 71 71 E 3 6 30.06 1018 10 16 0.00 0.00
1:52 pm 13:52 Cloudy 73 22.8 63 17.2 71 71 E 5 7 30.06 1018 10 16 0.00 0.00
2:52 pm 14:52 Cloudy 76 24.4 63 17.2 64 64 E 3 6 30.05 1018 10 16 0.00 0.00
3:52 pm 15:52 Cloudy 76 24.4 64 17.8 67 67 E 6 9 30.04 1017 10 16 0.00 0.00
4:52 pm 16:52 Cloudy with Light Rain 74 23.3 65 18.3 74 74 SE 9 15 30.04 1017 10 16 0.00 0.00
5:52 pm 17:52 Cloudy 74 23.3 65 18.3 74 74 S 9 15 30.01 1016 10 16 0.00 0.00
6:52 pm 18:52 Cloudy 73 22.8 62 16.7 69 69 SE 6 9 30.00 1016 10 16 0.00 0.00
7:52 pm 19:52 Cloudy 73 22.8 65 18.3 76 76 SE 8 13 29.99 1016 10 16 0.00 0.00
8:52 pm 20:52 Cloudy 72 22.2 63 17.2 73 73 ESE 7 11 29.98 1015 10 16 0.00 0.00
9:52 pm 21:52 Cloudy 72 22.2 65 18.3 79 79 E 6 9 30.00 1016 10 16 0.00 0.00
10:52 pm 22:52 Cloudy 71 21.7 65 18.3 81 81 SE 8 13 29.99 1016 10 16 0.00 0.00
11:52 pm 23:52 Cloudy 70 21.1 64 17.8 82 82 SSE 12 19 29.98 1015 10 16 0.00 0.00

Powered by AerisWeather